Regional Weather Roundup
Issued by NWS

Home | Current Version | Previous Version | Text Only | Print | Product List | Glossary Off
Versions: 1 2 3 4 5 6 7 8 9 10 11 12 13 14 15 16 17 18 19 20 21 22 23 24 25 26 27 28 29 30 31 32 33 34 35 36 37 38 39 40 41 42 43 44 45 46 47 48 49 50

000
ASUS45 KTFX 221610
RWRMT
MONTANA REGIONAL WEATHER ROUNDUP
NATIONAL WEATHER SERVICE GREAT FALLS MT
1000 AM MDT FRI MAY 22 2015

NOTE: "FAIR" INDICATES FEW OR NO CLOUDS BELOW 12000 FEET WITH NO
SIGNIFICANT WEATHER AND/OR OBSTRUCTIONS TO VISIBILITY.

MTZ001>007-043-221700-
WEST OF THE DIVIDE

CITY           SKY/WX    TMP DP  RH WIND       PRES   REMARKS
KALISPELL      SUNNY     64  37  36 NE8       29.92F
MISSOULA       SUNNY     58  45  62 VRB3      29.95S
BUTTE          SUNNY     53  40  61 NE5       29.99F
MULLAN PASS    SUNNY     56  41  57 SE5       30.00R
DEER LODGE       N/A     55  45  67 CALM      30.01F
EUREKA           N/A     63  34  34 CALM      29.95S
HAMILTON         N/A     61  45  55 SE5       29.94F
LIBBY            N/A     63  39  42 CALM      29.92F
RONAN            N/A     64  46  52 N1        29.98S
THOMPSON FALLS   N/A     63  46  53 E2        29.95F
$$

MTZ008-052>055-221700-
SOUTHWEST MONTANA

CITY           SKY/WX    TMP DP  RH WIND       PRES   REMARKS
BOZEMAN        SUNNY     57  43  59 CALM      29.97S
DILLON         PTSUNNY   54  44  69 VRB3      29.97S
W YELLOWSTONE  MOSUNNY   48  39  71 NE3       30.01F
THREE FORKS      N/A     59  25  27 CALM      29.96F
TWIN BRIDGES     N/A     56  42  59 S2        29.96S
$$

MTZ009-010-012-014-046-048-049-054-221700-
EAST SLOPES AND CENTRAL MONTANA

CITY           SKY/WX    TMP DP  RH WIND       PRES   REMARKS
CUT BANK       SUNNY     56  35  45 E5        29.99S
GREAT FALLS    SUNNY     61  43  51 VRB3      29.96S
MALMSTROM AFB  SUNNY     60  42  52 W6        29.96S
HELENA         SUNNY     58  45  62 N5        29.96S
CONRAD           N/A     59  43  55 N1        30.01S
$$

MTZ011-013-016-021-045-047-050-051-221700-
NORTH CENTRAL MONTANA

CITY           SKY/WX    TMP DP  RH WIND       PRES   REMARKS
HAVRE          MOSUNNY   62  40  44 E14       29.98F
LEWISTOWN      SUNNY     59  44  57 SE6       29.97S
N BAR RANCH    FAIR      55  43  62 E10G16    30.01S
CHINOOK          N/A     61  39  44 E13       30.00F
FORT BENTON      N/A     61  37  41 E9        29.97S
$$

MTZ017>020-022>027-061-062-221700-
NORTHEAST MONTANA

CITY           SKY/WX    TMP DP  RH WIND       PRES   REMARKS
GLASGOW        SUNNY     65  34  31 SE21      30.04F
JORDAN           N/A     64  41  42 E18       30.00F
SIDNEY         SUNNY     68  36  30 E12       30.10F
WOLF POINT     SUNNY     69  37  30 E13       30.07F
MALTA            N/A     66  41  40 E15       29.98F
PLENTYWOOD       N/A     66  30  26 SE12      30.11F
POPLAR           N/A     68  36  30 E17G23    30.08F
$$

MTZ028>42-056>058-221700-
SOUTHCENTRAL AND SOUTHEAST MONTANA

CITY           SKY/WX    TMP DP  RH WIND       PRES   REMARKS
BAKER          PTSUNNY   65  42  43 SE22G30   30.07F
BILLINGS       PTSUNNY   57  45  64 E3        29.96S
LIVINGSTON     MOSUNNY   52  43  71 CALM      29.97F
MILES CITY     PTSUNNY   62  43  49 SE15      30.01F
BIG TIMBER       N/A     52  43  71 NW3       29.98F
EKALAKA          N/A     62  41  46 E18       30.04S
FORSYTH          N/A     63  45  51 E17G25    29.97F
LAUREL           N/A     56  43  61 N2        29.95S
ROUNDUP          N/A     56  41  57 E2        29.89F
$$

REGIONAL REPORTS...DAKOTAS

CITY           SKY/WX    TMP DP  RH WIND       PRES   REMARKS
WILLISTON      SUNNY     69  35  28 E7        30.12F
MINOT          SUNNY     71  37  28 E9        30.13S
DICKINSON      MOSUNNY   66  33  29 SE20      30.11F
BEACH          FAIR      64  34  32 SE23G29   30.10F
CROSBY         FAIR      70  32  24 SE5       30.13F
WATFORD CITY   FAIR      68  34  28 SE12      30.11S
BISMARCK       SUNNY     68  39  34 VRB3      30.16S
GRAND FORKS    SUNNY     68  37  32 S6        30.16F
FARGO          SUNNY     68  33  27 E3        30.19S
BUFFALO SD       N/A     63  42  46 SE23G31   30.02S
RAPID CITY     CLOUDY    57  46  66 S12       30.10S
$$

REGIONAL REPORTS...WYOMING/IDAHO/WASHINGTON

CITY           SKY/WX    TMP DP  RH WIND       PRES   REMARKS
GILLETTE       PTSUNNY   56  44  64 SE22G29   30.02S
SHERIDAN       PTSUNNY   54  45  71 CALM      29.97S
BUFFALO WY     CLOUDY    52  44  74 SE16      30.00R
CODY           CLOUDY    54  46  76 NE7       29.97F
YELLOWSTONE LA   N/A     43  35  73 VRB3      30.05S
IDAHO FALLS    CLOUDY    58  46  64 NE6       29.94S
SALMON         PTSUNNY   55  45  67 NW3       29.94S
BOISE          CLOUDY    62  49  62 W7        29.90R
SPOKANE        PTSUNNY   67  52  58 CALM      29.88R
$$

REGIONAL REPORTS...ALBERTA

CITY           SKY/WX    TMP DP  RH WIND       PRES   REMARKS
EDMONTON       MOSUNNY   68  34  28 NE2       29.99R
LETHBRIDGE     MOSUNNY   59  36  41 NE5       29.99R
MEDICINE HAT   MOSUNNY   70  25  18 E6        29.99S
$$

REGIONAL REPORTS...SASKATCHEWAN

CITY           SKY/WX    TMP DP  RH WIND       PRES   REMARKS
SWIFT CURRENT  SUNNY     68  28  22 S20G28    30.07F
REGINA         SUNNY     68  39  34 SE3       30.10F
SASKATOON      SUNNY     70  37  30 SW7       30.10S
$$


USA.gov is the U.S. government's official web portal to all federal, state and local government web resources and services.